Location: Stoke Bliss
(52.2667°N, 2.5167°W)
Time: 12:36:55
(UTC+00:00)

Cosmos 990 Rocket - Pass Details

Date: 03 March 2021
Orbit: 746 x 769 km, 74.0° (Epoch: 13 April)

Event Time Altitude Azimuth Distance (km) Brightness Sun altitude
Rises 20:26:43 0° 336° (NNW) 3,211 7.9 -23.9°
Reaches altitude 10° 20:29:08 10° 340° (NNW) 2,285 7.0 -24.2°
Enters shadow 20:34:01 58° 48° (NE) 884 4.1 -24.9°
